EDT,Max TemperatureF,Mean TemperatureF,Min TemperatureF,Max Dew PointF,MeanDew PointF,Min DewpointF,Max Humidity, Mean Humidity, Min Humidity, Max Sea Level PressureIn, Mean Sea Level PressureIn, Min Sea Level PressureIn, Max VisibilityMiles, Mean VisibilityMiles, Min VisibilityMiles, Max Wind SpeedMPH, Mean Wind SpeedMPH, Max Gust SpeedMPH,PrecipitationIn, CloudCover, Events, WindDirDegrees
2013-3-1,55,45,35,35,29,27,70,55,38,29.97,29.93,29.87,10,10,8,16,7,22,0.00,2,,276
2013-3-2,47,40,33,35,31,27,82,68,57,29.94,29.91,29.87,10,10,10,16,8,23,T,5,,262
2013-3-3,46,40,33,30,25,21,82,59,40,30.03,29.97,29.93,10,10,10,16,6,22,0.00,5,,312
2013-3-4,58,43,28,29,21,15,75,47,19,30.20,30.12,30.04,10,10,9,13,5,18,0.00,0,,302
2013-3-5,68,53,37,54,42,32,86,64,39,30.11,29.92,29.70,10,10,7,25,8,36,0.06,4,Rain,211
2013-3-6,54,46,38,37,25,20,64,46,32,30.12,29.91,29.73,10,10,10,31,16,40,0.00,1,,290
2013-3-7,61,46,31,34,28,26,79,54,27,30.25,30.19,30.13,10,10,10,14,4,20,0.00,0,,333
2013-3-8,61,48,35,31,25,18,76,47,19,30.31,30.25,30.18,10,10,10,17,6,21,0.00,0,,16
2013-3-9,65,49,33,37,31,26,89,55,30,30.35,30.28,30.24,10,10,10,12,3,16,0.00,0,,74
2013-3-10,70,53,35,45,38,33,92,56,28,30.30,30.23,30.18,10,10,7,13,4,16,0.00,0,,139
2013-3-11,73,59,45,56,46,31,89,62,47,30.21,30.04,29.90,10,10,9,18,7,24,T,2,Rain,154
2013-3-12,73,64,55,62,55,37,100,77,37,29.97,29.86,29.82,10,8,2,20,9,25,0.47,5,Rain,225
2013-3-13,64,53,42,36,28,19,76,41,19,30.16,30.07,29.99,10,10,10,26,9,33,0.00,0,,304
2013-3-14,57,45,33,29,20,14,70,40,19,30.34,30.23,30.17,10,10,7,13,5,17,0.00,0,,340
2013-3-15,71,53,34,38,31,22,85,49,24,30.25,30.13,30.01,10,9,6,16,6,23,0.00,0,,241
2013-3-16,81,67,52,43,40,38,68,42,21,30.01,29.94,29.85,10,10,10,26,13,33,0.00,0,,240
2013-3-17,77,66,54,53,49,42,77,54,36,30.02,29.98,29.93,10,10,10,18,9,25,0.00,1,,239
2013-3-18,67,59,50,59,54,46,93,81,67,30.08,29.99,29.84,10,7,2,31,6,46,0.57,7,Rain,92
2013-3-19,75,63,51,54,44,24,100,70,17,30.03,29.92,29.86,10,7,0,17,8,23,T,4,Fog-Rain,288
2013-3-20,60,51,42,36,24,16,76,36,21,30.12,29.99,29.84,10,10,10,12,4,16,0.00,1,,28
2013-3-21,57,48,39,28,18,7,49,34,14,29.97,29.87,29.82,10,10,10,23,9,30,0.00,0,,302
2013-3-22,51,44,36,33,21,15,73,43,27,30.11,30.06,29.99,10,10,10,10,4,13,0.00,4,,69
2013-3-23,51,45,39,47,43,33,100,87,76,30.07,29.98,29.91,10,7,2,21,4,25,0.33,7,Rain,69
2013-3-24,51,48,44,49,46,43,100,92,86,29.90,29.67,29.54,10,6,2,17,6,25,1.35,8,Rain,48
2013-3-25,53,46,39,45,30,21,93,56,28,29.99,29.76,29.62,10,9,6,32,16,41,0.00,3,,275
2013-3-26,52,42,31,27,24,22,69,50,30,30.20,30.06,29.99,10,10,10,17,9,25,0.00,3,,285
2013-3-27,58,45,32,32,25,21,76,49,24,30.29,30.23,30.19,10,10,10,18,5,21,0.00,0,,304
2013-3-28,61,47,32,33,25,20,85,47,20,30.33,30.26,30.20,10,10,10,18,4,24,0.00,0,,344
2013-3-29,66,49,32,37,29,22,96,50,19,30.37,30.30,30.21,10,9,2,12,2,14,0.00,2,,126
2013-3-30,73,62,50,48,44,39,77,58,33,30.25,30.15,30.06,10,10,9,15,4,18,0.00,4,,192
2013-3-31,78,68,57,61,53,46,93,68,40,30.06,29.96,29.86,10,9,2,28,9,37,0.28,6,Rain,225